Location: ?????????
(53.2086°N, 54.0693°E)
Time: 02:50:08
(UTC+00:00)

Meteor 1-27 Rocket - Pass Details

Date: 08 December 2019
Orbit: 830 x 909 km, 81.3° (Epoch: 28 January)

Event Time Altitude Azimuth Distance (km) Brightness Sun altitude
Rises 14:43:11 0° 203° (SSW) 3,441 7.3 -22.1°
Reaches altitude 10° 14:45:37 10° 206° (SSW) 2,519 6.6 -22.4°
Maximum altitude 14:51:18 63° 288° (WNW) 993 4.2 -23.3°
Drops below altitude 10° 14:57:09 10° 9° (N) 2,586 6.1 -24.1°
Enters shadow 14:58:00 - 10° (N) 2,903 6.3 -24.3°
